Location: Summit Observatory
(39.5293°N, 75.7290°W)
Time: 00:21:01
(UTC-04:00)

Amateur Radio Satellites - All Passes

Search period start: 25 October 2014 23:51
Search period end: 26 October 2014 23:51
Location: Summit Observatory, 39.5293°N, 75.7290°W

Satellite Date Start Highest point End Downlink Frequencies (MHz)
Time Altitude Azimuth
MaSat-1 26 Oct 00:13:32 00:17:31 48° 297° (WNW) 00:21:09 437.345 MHz
UOSAT-12 26 Oct 00:25:10 00:29:29 36° 246° (WSW) 00:33:42 437.025 FM, 437.400 FM
RS-15 26 Oct 01:30:40 01:39:08 25° 333° (NNW) 01:47:43 29.354 - 29.394 USB, Beacon 29.352 USB
Oscar 16 26 Oct 01:31:43 01:35:04 17° 92° (E) 01:38:24 437.025 USB, Beacon 2401.1428
Oscar 10/S400 26 Oct 01:48:54 02:44:32 18° 246° (WSW) 04:37:47 145.825 - 145.975 CW/USB, Beacon 145.810 USB
Uribyol 2 26 Oct 01:54:58 01:56:34 11° 89° (E) 01:58:10 436.500 FM
ITAMSAT 1 26 Oct 02:00:49 02:02:58 12° 90° (E) 02:05:06 435.822 SSB
JAS-1B 26 Oct 02:11:44 02:18:17 44° 100° (E) 02:25:59 435.800 - 435.900 CW/SSB
Oscar 19 26 Oct 02:23:40 02:28:42 56° 101° (E) 02:33:42 437.125 CW, 437.150 USB
Gurwin Techsat 1B 26 Oct 02:27:44 02:29:43 12° 89° (E) 02:31:42 435.225 FM
TMSAT-1 26 Oct 02:38:46 02:40:06 11° 89° (E) 02:41:26 436.925 FM
AO-27 26 Oct 02:44:38 02:49:25 35° 97° (E) 02:54:09 436.795 MHz FM
AO-Echo 26 Oct 02:54:53 03:00:10 60° 101° (E) 03:05:23 ?
Oscar 16 26 Oct 03:09:44 03:14:43 52° 288° (WNW) 03:19:39 437.025 USB, Beacon 2401.1428
Sapphire 26 Oct 03:12:31 03:17:12 31° 109° (ESE) 03:21:54 437.095 MHz 1200 baud AX-25 AFSK
Uribyol 2 26 Oct 03:31:23 03:36:37 79° 285° (WNW) 03:41:47 436.500 FM
PCSat 26 Oct 03:34:14 03:39:28 53° 113° (ESE) 03:44:44 145.825 MHz
ITAMSAT 1 26 Oct 03:37:45 03:42:59 74° 286° (WNW) 03:48:09 435.822 SSB
RS-15 26 Oct 03:50:05 03:57:10 18° 10° (N) 04:04:21 29.354 - 29.394 USB, Beacon 29.352 USB
OPAL 26 Oct 03:55:58 03:58:29 14° 59° (ENE) 04:00:59 ?
JAS-1B 26 Oct 04:02:47 04:08:46 35° 293° (WNW) 04:15:44 435.800 - 435.900 CW/SSB
Oscar 19 26 Oct 04:04:15 04:07:35 18° 297° (WNW) 04:10:54 437.125 CW, 437.150 USB
Gurwin Techsat 1B 26 Oct 04:04:55 04:10:14 78° 285° (WNW) 04:15:32 435.225 FM
TMSAT-1 26 Oct 04:15:18 04:20:38 83° 285° (WNW) 04:25:56 436.925 FM
AO-7 26 Oct 04:19:46 04:26:39 28° 95° (E) 04:33:30 29.400 - 29.500 MHz
AO-27 26 Oct 04:24:23 04:28:46 28° 294° (WNW) 04:33:07 436.795 MHz FM
AO-Echo 26 Oct 04:34:55 04:38:24 18° 297° (WNW) 04:41:51 ?
Uosat F 26 Oct 04:41:38 04:45:43 24° 95° (E) 04:49:46 435.120 FM
Sapphire 26 Oct 04:55:32 05:00:30 36° 306° (NW) 05:05:30 437.095 MHz 1200 baud AX-25 AFSK
PCSat 26 Oct 05:18:53 05:23:11 24° 311° (NW) 05:27:30 145.825 MHz
OPAL 26 Oct 05:31:34 05:36:43 77° 255° (WSW) 05:41:50 ?
STRAND 1 26 Oct 05:42:07 05:44:53 15° 61° (ENE) 05:47:39 ?
TMSAT-1 26 Oct 05:58:28 05:59:41 11° 302° (WNW) 06:00:54 436.925 FM
JAS-2 26 Oct 06:00:39 06:08:09 47° 97° (E) 06:15:31 435.800 - 435.900 CW/SSB, 435.910 FM
RS-15 26 Oct 06:03:33 06:13:52 41° 43° (NE) 06:24:30 29.354 - 29.394 USB, Beacon 29.352 USB
AO-7 26 Oct 06:11:41 06:19:51 63° 293° (WNW) 06:28:01 29.400 - 29.500 MHz
Uosat F 26 Oct 06:19:56 06:24:34 37° 291° (WNW) 06:29:10 435.120 FM
Hamsat 26 Oct 06:36:45 06:40:52 52° 100° (E) 06:44:59 145.90 MHz
STRAND 1 26 Oct 07:18:21 07:23:27 70° 258° (WSW) 07:28:36 ?
PANSAT 26 Oct 07:22:12 07:23:53 13° 169° (S) 07:25:34 not established
Saudisat 1A 26 Oct 07:24:12 07:28:31 65° 119° (ESE) 07:32:54 436.775 MHz
JAS-2 26 Oct 07:45:53 07:52:54 38° 294° (WNW) 07:59:55 435.800 - 435.900 CW/SSB, 435.910 FM
AO-7 26 Oct 08:07:19 08:11:00 14° 313° (NW) 08:14:40 29.400 - 29.500 MHz
Hamsat 26 Oct 08:14:24 08:16:22 13° 295° (WNW) 08:18:20 145.90 MHz
RS-15 26 Oct 08:15:51 08:26:53 66° 246° (WSW) 08:38:24 29.354 - 29.394 USB, Beacon 29.352 USB
SO-67 26 Oct 08:26:02 08:29:25 53° 285° (WNW) 08:32:46 435.3500 MHz FM
MaSat-1 26 Oct 08:26:29 08:27:01 10° 53° (NE) 08:27:33 437.345 MHz
PANSAT 26 Oct 09:01:00 09:03:20 16° 182° (S) 09:05:40 not established
Saudisat 1A 26 Oct 09:05:45 09:08:31 16° 317° (NW) 09:11:18 436.775 MHz
HO-68 26 Oct 09:13:01 09:19:14 31° 96° (E) 09:25:25 435.675 MHz FM
UKube-1 26 Oct 09:53:36 09:56:47 20° 94° (E) 09:59:56 145.840 MHz, 145.915 MHz
MaSat-1 26 Oct 10:00:47 10:02:35 18° 253° (WSW) 10:04:19 437.345 MHz
Oscar 11 26 Oct 10:32:54 10:37:07 52° 100° (E) 10:41:18 145.825 FM, Beacon 2401.500 USB
RS-15 26 Oct 10:33:26 10:37:02 12° 264° (W) 10:40:41 29.354 - 29.394 USB, Beacon 29.352 USB
FUNcube-1 26 Oct 10:35:31 10:38:48 22° 94° (E) 10:42:01 145.950 - 145.970 MHz USB
PANSAT 26 Oct 10:42:16 10:42:45 10° 195° (SSW) 10:43:15 not established
HO-68 26 Oct 11:00:15 11:07:07 49° 293° (WNW) 11:13:56 435.675 MHz FM
KITSAT 1 26 Oct 11:17:57 11:25:00 35° 107° (ESE) 11:32:04 435.175 FM
ZACube-1 26 Oct 11:26:42 11:30:57 88° 103° (ESE) 11:35:07 437.345 MHz
UKube-1 26 Oct 11:29:04 11:33:02 35° 290° (WNW) 11:36:59 145.840 MHz, 145.915 MHz
ISS 26 Oct 11:33:19 11:35:54 21° 132° (SE) 11:38:29 145.800 FM
SO-50 26 Oct 11:42:23 11:45:07 16° 109° (ESE) 11:47:53 436.795 FM
Oscar 10/S400 26 Oct 11:58:02 12:17:26 26° 151° (SSE) 12:32:12 145.825 - 145.975 CW/USB, Beacon 145.810 USB
Sapphire 26 Oct 12:01:11 12:05:29 23° 49° (NE) 12:09:46 437.095 MHz 1200 baud AX-25 AFSK
Oscar 11 26 Oct 12:10:38 12:12:50 14° 296° (WNW) 12:15:02 145.825 FM, Beacon 2401.500 USB
FUNcube-1 26 Oct 12:11:32 12:15:11 28° 290° (WNW) 12:18:46 145.950 - 145.970 MHz USB
PCSat 26 Oct 12:23:08 12:28:08 36° 54° (NE) 12:33:05 145.825 MHz
Oscar 16 26 Oct 12:47:40 12:51:47 25° 66° (ENE) 12:55:53 437.025 USB, Beacon 2401.1428
JAS-1B 26 Oct 12:58:38 13:03:31 28° 66° (ENE) 13:08:16 435.800 - 435.900 CW/SSB
ISS 26 Oct 13:09:14 13:12:24 41° 328° (NNW) 13:15:35 145.800 FM
Uribyol 2 26 Oct 13:11:09 13:14:34 18° 63° (ENE) 13:18:00 436.500 FM
KITSAT 1 26 Oct 13:12:13 13:20:04 53° 306° (NW) 13:27:57 435.175 FM
ITAMSAT 1 26 Oct 13:17:25 13:21:01 19° 63° (ENE) 13:24:37 435.822 SSB
SO-50 26 Oct 13:20:48 13:25:11 52° 306° (NW) 13:29:43 436.795 FM
Oscar 19 26 Oct 13:39:34 13:44:42 74° 74° (ENE) 13:49:50 437.125 CW, 437.150 USB
Sapphire 26 Oct 13:43:56 13:49:14 54° 247° (WSW) 13:54:29 437.095 MHz 1200 baud AX-25 AFSK
Gurwin Techsat 1B 26 Oct 13:47:17 13:50:57 19° 63° (ENE) 13:54:37 435.225 FM
TMSAT-1 26 Oct 13:57:38 14:01:05 18° 63° (ENE) 14:04:32 436.925 FM
AO-27 26 Oct 14:01:47 14:06:47 49° 71° (ENE) 14:11:50 436.795 MHz FM
PCSat 26 Oct 14:06:42 14:11:26 31° 251° (WSW) 14:16:09 145.825 MHz
AO-Echo 26 Oct 14:06:53 14:11:44 68° 74° (ENE) 14:16:47 ?
Oscar 16 26 Oct 14:26:05 14:30:53 39° 262° (W) 14:35:43 437.025 USB, Beacon 2401.1428
UOSAT-12 26 Oct 14:34:43 14:39:20 83° 120° (ESE) 14:44:04 437.025 FM, 437.400 FM
ISS 26 Oct 14:48:11 14:49:48 13° 347° (NNW) 14:51:25 145.800 FM
Uribyol 2 26 Oct 14:48:26 14:53:33 58° 259° (W) 14:58:43 436.500 FM
JAS-1B 26 Oct 14:48:43 14:54:07 35° 262° (W) 14:59:18 435.800 - 435.900 CW/SSB
ITAMSAT 1 26 Oct 14:54:59 15:00:04 53° 260° (W) 15:05:11 435.822 SSB
KITSAT 1 26 Oct 15:13:04 15:17:34 16° 331° (NNW) 15:22:05 435.175 FM
AO-7 26 Oct 15:17:51 15:25:11 37° 60° (ENE) 15:32:31 29.400 - 29.500 MHz
Oscar 19 26 Oct 15:22:33 15:24:33 12° 270° (W) 15:26:32 437.125 CW, 437.150 USB
Gurwin Techsat 1B 26 Oct 15:25:17 15:30:28 54° 260° (W) 15:35:41 435.225 FM
TMSAT-1 26 Oct 15:35:16 15:40:29 59° 259° (W) 15:45:45 436.925 FM
AO-27 26 Oct 15:42:54 15:46:33 19° 267° (W) 15:50:14 436.795 MHz FM
AO-Echo 26 Oct 15:48:58 15:51:02 13° 271° (W) 15:53:07 ?
Saudisat 1A 26 Oct 15:51:46 15:55:57 39° 52° (NE) 16:00:06 436.775 MHz
Uosat F 26 Oct 15:54:00 15:58:22 31° 68° (ENE) 16:02:46 435.120 FM
JAS-2 26 Oct 16:14:17 16:18:07 17° 56° (NE) 16:22:12 435.800 - 435.900 CW/SSB, 435.910 FM
UOSAT-12 26 Oct 16:17:26 16:20:07 15° 319° (NW) 16:22:49 437.025 FM, 437.400 FM
ISS 26 Oct 16:26:32 16:27:40 11° 8° (N) 16:28:47 145.800 FM
AO-7 26 Oct 17:09:45 17:17:42 50° 259° (WSW) 17:25:42 29.400 - 29.500 MHz
Hamsat 26 Oct 17:29:18 17:33:04 33° 71° (ENE) 17:36:49 145.90 MHz
Saudisat 1A 26 Oct 17:31:57 17:35:15 21° 249° (WSW) 17:38:31 436.775 MHz
Uosat F 26 Oct 17:32:46 17:37:06 29° 264° (W) 17:41:28 435.120 FM
OPAL 26 Oct 17:42:54 17:47:11 29° 98° (E) 17:51:25 ?
JAS-2 26 Oct 17:56:10 18:02:07 82° 257° (WSW) 18:08:57 435.800 - 435.900 CW/SSB, 435.910 FM
ISS 26 Oct 18:02:18 18:05:14 27° 28° (NNE) 18:08:09 145.800 FM
SO-67 26 Oct 18:57:34 19:00:44 36° 74° (ENE) 19:03:56 435.3500 MHz FM
Hamsat 26 Oct 19:06:04 19:09:04 19° 266° (W) 19:12:04 145.90 MHz
KITSAT 1 26 Oct 19:11:46 19:17:06 18° 33° (NNE) 19:22:23 435.175 FM
OPAL 26 Oct 19:21:41 19:26:01 31° 294° (WNW) 19:30:18 ?
STRAND 1 26 Oct 19:30:02 19:34:56 43° 99° (E) 19:39:48 ?
ISS 26 Oct 19:38:52 19:41:58 36° 224° (SW) 19:45:03 145.800 FM
HO-68 26 Oct 19:41:50 19:47:04 23° 58° (ENE) 19:52:19 435.675 MHz FM
JAS-2 26 Oct 19:47:12 19:48:27 11° 277° (W) 19:49:44 435.800 - 435.900 CW/SSB, 435.910 FM
SO-50 26 Oct 20:13:39 20:16:43 17° 42° (NE) 20:19:48 436.795 FM
RS-15 26 Oct 20:30:00 20:37:30 22° 101° (E) 20:44:54 29.354 - 29.394 USB, Beacon 29.352 USB
SO-67 26 Oct 20:32:57 20:33:52 11° 269° (W) 20:34:48 435.3500 MHz FM
UKube-1 26 Oct 20:48:51 20:51:34 16° 65° (ENE) 20:54:17 145.840 MHz, 145.915 MHz
KITSAT 1 26 Oct 21:06:07 21:14:10 66° 57° (ENE) 21:22:10 435.175 FM
STRAND 1 26 Oct 21:09:52 21:13:49 23° 295° (WNW) 21:17:45 ?
HO-68 26 Oct 21:26:56 21:34:04 72° 256° (WSW) 21:41:16 435.675 MHz FM
Oscar 11 26 Oct 21:27:04 21:31:01 36° 71° (ENE) 21:34:59 145.825 FM, Beacon 2401.500 USB
FUNcube-1 26 Oct 21:31:17 21:34:25 19° 66° (ENE) 21:37:31 145.950 - 145.970 MHz USB
SO-50 26 Oct 21:52:58 21:57:50 78° 240° (WSW) 22:02:43 436.795 FM
ZACube-1 26 Oct 22:21:39 22:26:11 64° 75° (ENE) 22:30:40 437.345 MHz
UKube-1 26 Oct 22:23:13 22:27:23 44° 260° (W) 22:31:34 145.840 MHz, 145.915 MHz
RS-15 26 Oct 22:37:16 22:48:19 88° 301° (WNW) 22:59:18 29.354 - 29.394 USB, Beacon 29.352 USB
KITSAT 1 26 Oct 23:02:33 23:08:54 26° 255° (WSW) 23:15:15 435.175 FM
Oscar 11 26 Oct 23:04:18 23:07:18 18° 267° (W) 23:10:19 145.825 FM, Beacon 2401.500 USB
UOSAT-12 26 Oct 23:05:18 23:09:57 55° 55° (NE) 23:14:30 437.025 FM, 437.400 FM
FUNcube-1 26 Oct 23:06:07 23:10:28 42° 262° (W) 23:14:46 145.950 - 145.970 MHz USB
HO-68 26 Oct 23:21:54 23:22:53 10° 273° (W) 23:23:52 435.675 MHz FM
MaSat-1 26 Oct 23:34:32 23:38:40 87° 114° (ESE) 23:42:24 437.345 MHz
